EHI
0 0 0 0 0 0 0 0 0 0 0 0 0 0 0 0 0 0 0 0 0 0 0 0 0 0 0 0 0 0 0 0 0 0 0 0 0 0 0 0 0 0 0 0
0 0 0 0 0 0 0 0 0 0 0 0 0 0 0 0 0 0 0 0 0 0 0 0 0 0 0 0 0 0 0 0 0 0 0 0 0 0 0 0 0 0 0 0
0 0 0 0 0 0 0 0 0 0 0 0 0 0 0 0 0 0 0 0 0 0 0 0 0 0 0 0 0 0 0 0 0 0 0 0 0 0 0 0 0 0 0 0
0 0 0 0 0 0 0 0 0 0 0 0 0 0 0 0 0 0 0 0 0 0 0 0 0 0 0 0 0 0 0 0 0 0 0 0 0 0 0 0 0 0 0 0
0 0 0 0 0 0 0 0 0 0 0 0 0 0 0 0 0 0 0 0 0 0 0 0 0 0 0 0 0 0 0 0 0 0 0 0 0 0 0 0 0 0 0 0
0 0 0 0 0 0 0 0 0 0 0 0 0 0 0 0 0 0 0 0 0 0 0 0 0 0 0 0 0 0 0 0 0 0 0 0 0 0 0 0 0 0 0 0
0 0 0 0 0 0 0 0 0 0 0 0 0 0 0 0 0 0 0 0 0 0 0 0 0 0 0 0 0 0 0 0 0 0 0 0 0 0 0 0 0 0 0 0
0 0 0 0 0 0 0 0 0 0 0 0 0 0 0 0 0 0 0 0 0 0 0 0 0 0 0 0 0 0 0 0 0 0 0 0 0 0 0 0 0 0 0 0
0 0 0 0 0 0 0 0 0 0 0 0 0 0 0 0 0 0 0 0 0 0 0 0 0 0 0 0 0 0 0 0 0 0 0 0 0 0 0 0 0 0 0 0
0 0 0 0 0 0 0 0 0 0 0 0 0 0 0 0 0 0 0 0 0 0 0 0 0 0 0 0 0 0 0 0 0 0 0 0 0 0 0 0 0 0 0 0
0 0 0 0 0 0 0 0 0 0 0 0 0 0 0 0 0 0 0 0 0 0 0 0 0 0 0 0 0 0 0 0 0 0 0 0 0 0 0 0 0 0 0 0
0 0 0 0 0 0 0 0 0 0 0 0 0 0 0 0 0 0 0 0 0 0 0 0 0 0 0 0 0 0 0 0 0 0 0 0 0 0 0 0 0 0 0 0
0 0 0 0 0 0 0 0 0 0 0 0 0 0 0 0 0 0 0 0 0 0 0 0 0 0 0 0 0 0 0 0 0 0 0 0 0 0 0 0 0 0 0 0
0 0 0 0 0 0 0 0 0 0 0 0 0 0 0 0 0 0 0 0 0 0 0 0 0 0 0 0 0 0 0 0 0 0 0 0 0 0 0 0 0 0 0 0
0 0 0 0 0 0 0 0 0 0 0 0 0 0 0 0 0 0 0 0 0 0 0 0 0 0 0 0 0 0 0 0 0 0 0 0 0 0 0 0 0 0 0 0
0 0 0 0 0 0 0 0 0 0 0 0 0 0 0 0 0 0 0 0 0 0 0 0 0 0 0 0 0 0 0 0 0 0 0 0 0 0 0 0 0 0 0 0
0 0 0 0 0 0 0 0 0 0 0 0 0 0 0 0 0 0 0 0 0 0 0 0 0 0 0 0 0 0 0 0 0 0 0 0 0 0 0 0 0 0 0 0
0 0 0 0 0 0 0 0 0 0 0 0 0 0 0 0 0 0 0 0 0 0 0 0 0 0 0 0 0 0 0 0 0 0 0 0 0 0 0 0 0 0 0 0
0 0 0 0 0 0 0 0 0 0 0 0 0 0 0 0 0 0 0 0 0 0 0 0 0 0 0 0 0 0 0 0 0 0 0 0 0 0 0 0 0 0 0 0
0 0 0 0 0 0 0 0 0 0 0 0 0 0 0 0 0 0 0 0 0 0 0 0 0 0 0 0 0 0 0 0 0 0 0 0 0 0 0 0 0 0 0 0
0 0 0 0 0 0 0 0 0 0 0 0 0 0 0 0 0 0 0 0 0 0 0 0 0 0 0 0 0 0 0 0 0 0 0 0 0 0 0 0 0 0 0 0
0 0 0 0 0 0 0 0 0 0 0 0 0 0 0 0 0 0 0 0 0 0 0 0 0 0 0 0 0 0 0 0 0 0 0 0 0 0 0 0 0 0 0 0
0 0 0 0 0 0 0 0 0 0 0 0 0 0 0 0 0 0 0 0 0 0 0 0 0 0 0 0 0 0 0 0 0 0 0 0 0 0 0 0 0 0 0 0
0 0 0 0 0 0 0 0 0 0 0 0 0 0 0 0 0 0 0 0 0 0 0 0 0 0 0 0 0 0 0 0 0 0 0 0 0 0 0 0 0 0 0 0
0 0 0 0 0 0 0 0 0 0 0 0 0 0 0 0 0 0 0 0 0 0 0 0 0 0 0 0 0 0 0 0 0 0 0 0 0 0 0 0 0 0 0 0
0 0 0 0 0 0 0 0 0 0 0 0 0 0 0 0 0 0 0 0 0 0 0 0 0 0 0 0 0 0 0 0 0 0 0 0 0 0 0 0 0 0 0 0
0 0 0 0 0 0 0 0 0 0 0 0 0 0 0 0 0 0 0 0 0 0 0 0 0 0 0 0 0 0 0 0 0 0 0 0 0 0 0 0 0 0 0 0
Wind_Speed
2 2 4 5 8 12 11 8 7 5 5 7 8 8 8 8 7 6 5 6 7 7 8 8 9 9 10 10 10 10 9 9 9 9 8 7 7 7 7 7 8 8 9 9
1 2 3 6 9 12 13 13 13 11 11 10 8 6 6 7 6 5 4 5 6 7 8 8 9 9 9 9 9 9 9 9 9 9 9 9 9 9 9 10 10 10 10 10
2 2 3 9 12 16 11 10 11 13 10 7 7 8 8 7 4 3 3 4 5 6 7 7 7 8 8 8 8 8 8 9 9 9 10 10 9 10 10 10 11 11 11 11
1 2 7 0 2 7 12 12 12 11 11 10 10 10 7 3 1 1 1 2 4 5 5 6 6 6 6 6 7 8 8 9 9 9 9 9 10 10 10 9 9 10 10 11
2 4 6 4 4 7 8 7 12 15 14 12 8 6 4 3 2 3 3 2 3 4 4 4 5 5 6 7 7 8 8 8 8 8 9 9 10 10 9 9 9 9 9 11
4 5 5 1 3 5 5 4 5 9 10 8 4 4 1 7 5 5 4 3 3 3 3 4 5 5 6 7 8 8 8 8 8 8 9 9 9 9 9 9 9 9 10 9
6 6 7 2 4 7 6 4 4 4 6 5 5 4 4 8 6 6 5 4 3 3 3 3 3 4 6 7 7 6 6 7 8 8 9 9 9 8 8 9 9 9 9 7
7 8 7 5 8 7 1 2 1 3 4 5 5 2 5 7 7 7 6 5 4 4 3 2 3 4 6 6 5 5 6 8 8 8 7 7 8 8 8 8 8 7 7 6
7 6 1 4 4 1 1 2 3 3 4 4 4 5 7 8 8 8 7 6 5 5 4 3 3 4 6 5 5 6 7 8 7 7 7 6 7 7 6 5 4 4 4 4
6 7 6 5 5 3 3 3 4 4 5 5 6 6 8 8 8 9 8 8 7 7 6 5 5 5 6 6 6 7 7 7 6 6 6 6 5 4 4 4 3 3 3 3
8 5 3 4 4 2 2 3 4 4 5 6 6 6 8 9 10 9 8 8 7 7 7 7 6 6 6 6 6 7 7 6 6 5 5 6 6 5 5 4 4 3 2 2
7 6 5 4 3 1 3 4 5 5 5 5 6 7 8 8 9 9 9 9 8 8 8 8 7 7 6 6 6 7 6 5 4 4 4 4 4 5 7 6 7 5 3 1
2 2 2 1 1 0 3 6 6 6 6 5 5 6 7 7 8 9 10 10 9 9 8 8 8 7 6 6 6 6 6 5 4 4 3 3 3 3 3 4 5 5 4 2
2 2 3 1 0 4 7 8 6 5 5 5 4 5 6 7 8 10 10 10 9 8 8 8 8 7 7 6 6 6 6 5 4 4 3 3 2 2 1 2 2 1 2 3
3 0 3 4 6 6 6 5 5 5 5 4 4 5 7 8 9 9 9 9 9 8 8 8 8 7 7 7 7 7 5 4 4 4 3 3 2 2 2 1 1 1 1 1
1 3 4 5 5 6 6 6 7 7 6 6 6 6 7 7 7 8 9 10 10 10 9 8 8 7 7 7 7 6 5 6 5 4 3 3 3 2 2 2 2 2 2 2
2 2 2 3 5 7 7 8 8 8 7 7 7 6 6 7 7 8 8 9 8 7 8 8 7 8 8 8 7 5 5 6 7 4 3 3 3 2 2 2 2 2 2 3
3 4 5 7 8 9 9 9 8 8 8 6 5 6 8 9 9 9 8 8 6 6 6 7 7 8 8 7 6 5 5 5 4 4 3 3 3 2 2 2 2 3 3 3
2 3 5 6 7 8 8 8 8 7 5 4 6 7 8 8 7 8 8 9 9 8 8 7 12 9 8 8 7 5 5 5 4 4 3 4 3 2 2 2 3 3 4 4
2 3 4 5 6 6 6 6 6 4 1 3 5 5 6 6 6 7 8 8 6 4 7 10 10 8 8 9 9 5 5 5 5 4 4 3 3 2 2 3 3 4 4 4
3 4 5 5 5 5 6 6 5 3 1 1 3 4 5 5 6 6 7 6 5 5 8 13 9 7 7 8 10 5 5 5 5 4 4 3 3 3 3 3 4 4 4 5
3 4 5 5 5 5 5 5 5 3 2 0 1 2 4 5 6 5 5 3 5 9 8 8 7 9 11 11 6 6 5 5 4 4 3 3 3 3 3 3 4 4 4 5
3 3 4 5 5 5 5 5 5 4 3 1 2 3 4 4 4 5 4 4 5 11 8 7 9 15 16 9 6 6 6 5 5 4 4 3 3 3 3 4 4 4 5 5
2 3 4 4 4 4 6 6 6 4 4 3 2 2 3 3 3 3 2 5 9 11 7 9 15 17 16 6 6 6 5 5 4 4 4 3 3 3 3 4 4 5 5 7
2 2 3 4 4 4 5 6 5 5 4 3 3 1 1 2 2 3 3 5 9 10 6 10 16 18 11 6 6 6 5 5 5 4 4 4 3 3 4 4 4 5 5 6
1 2 2 3 3 3 4 4 4 4 4 4 3 2 1 1 1 2 3 4 7 9 7 6 9 12 8 7 6 6 5 5 5 5 4 4 4 4 4 4 6 6 6 6
2 2 2 2 2 2 3 3 4 4 4 4 4 3 2 1 2 2 3 4 4 5 5 6 7 7 7 6 6 6 5 5 4 4 4 4 4 4 4 6 5 5 5 6
Wind_Direction
86 103 161 201 197 196 206 215 225 237 252 270 292 311 320 328 333 337 352 0 4 3 1 360 1 1 359 355 353 352 360 7 8 7 13 26 38 49 59 71 81 89 93 94
152 167 216 243 226 213 220 228 240 259 274 271 285 297 307 322 327 329 351 2 6 6 2 2 4 2 0 358 358 4 15 21 21 26 35 43 50 61 67 72 78 83 88 93
174 174 258 251 226 210 207 211 218 232 244 272 291 307 319 322 315 329 1 8 9 9 6 5 6 5 4 2 7 19 27 31 33 40 47 51 57 64 69 73 79 83 87 92
165 207 240 174 120 203 216 224 220 237 255 272 289 308 307 292 275 98 63 33 26 18 13 12 13 13 15 19 25 32 37 38 40 47 55 59 63 66 68 71 76 81 84 87
206 256 271 265 191 179 192 228 221 231 253 270 294 291 238 163 145 116 103 73 52 35 23 23 24 25 33 37 38 42 43 44 47 55 62 65 66 66 67 73 73 73 75 79
208 252 251 125 131 172 187 189 177 210 241 265 270 265 145 148 152 139 126 112 92 74 55 44 38 44 55 50 47 46 47 52 56 63 69 70 71 70 68 72 73 74 72 75
217 245 268 230 143 159 200 155 155 211 243 255 242 274 103 146 152 146 139 132 123 111 87 60 60 75 72 63 53 50 58 64 65 67 71 76 77 76 80 82 82 80 80 78
203 223 241 152 160 192 92 60 272 258 254 255 249 205 162 166 162 159 155 153 152 142 124 103 104 106 93 79 78 77 75 72 70 71 75 82 88 88 90 94 95 95 97 93
211 225 31 168 197 207 8 279 274 265 258 253 243 213 191 182 174 170 168 165 166 161 146 133 130 133 116 111 111 104 93 84 83 83 82 87 93 98 97 96 98 102 102 99
235 242 242 240 243 253 268 270 276 271 268 249 243 223 196 185 179 176 175 173 171 171 165 150 142 135 125 127 126 117 106 100 96 92 88 84 79 78 84 87 94 100 101 104
233 241 235 230 207 211 284 288 287 279 258 250 243 224 201 190 184 180 177 175 178 181 171 158 152 142 139 141 139 126 116 110 104 94 95 86 76 66 67 60 50 75 92 104
213 200 200 177 138 292 293 300 306 294 270 245 233 225 203 195 185 180 177 175 179 182 174 165 160 153 151 153 152 140 131 127 119 115 109 107 108 98 76 80 88 84 87 84
188 149 215 265 308 77 318 308 302 285 268 259 238 220 202 192 183 180 178 179 183 182 177 169 165 160 160 163 165 158 147 143 137 139 139 140 138 141 136 103 81 65 45 36
137 171 232 234 276 322 310 301 293 280 267 256 239 214 197 187 182 184 185 182 176 174 174 172 169 166 164 166 165 158 151 149 153 154 158 158 157 165 183 204 210 174 33 7
145 181 283 305 301 300 305 299 286 270 259 248 227 211 196 190 189 189 179 169 165 169 174 174 174 169 166 168 165 161 159 158 159 154 156 157 157 168 182 204 238 252 260 267
215 292 285 283 292 303 306 297 284 277 265 248 231 217 205 198 188 177 172 170 171 178 180 181 181 170 167 168 164 162 164 161 159 157 160 166 175 190 203 220 239 259 275 292
230 250 274 283 293 299 296 290 282 279 270 250 234 210 190 180 177 177 178 179 180 177 177 182 176 164 169 173 170 163 158 162 167 167 175 182 190 201 213 234 257 274 282 293
254 274 278 282 288 293 294 292 284 277 266 253 218 189 186 187 188 184 176 168 163 167 179 178 166 163 169 173 171 162 163 165 174 180 181 186 192 198 217 247 269 280 289 289
269 279 285 287 290 290 290 293 294 286 270 223 192 193 195 195 188 175 167 172 180 188 187 176 171 168 171 176 169 164 167 170 175 180 182 187 186 204 229 255 272 281 286 288
353 332 323 319 317 310 309 311 310 305 278 189 184 186 190 188 175 169 177 190 197 187 165 170 171 171 174 176 171 169 174 178 180 178 182 193 204 220 238 258 272 277 279 280
6 355 349 341 334 337 340 336 336 343 357 173 189 195 190 177 170 171 182 200 192 166 166 172 171 172 173 173 173 173 177 180 182 183 187 196 208 225 244 258 268 273 277 279
2 358 353 346 345 348 351 353 356 357 6 63 177 171 170 173 176 185 203 208 173 174 174 176 175 178 176 172 173 175 179 181 182 182 188 196 210 229 245 256 264 269 273 275
3 357 353 352 346 342 352 4 1 353 341 307 232 203 199 193 185 187 204 199 178 183 181 183 183 180 177 170 173 177 179 183 185 186 189 195 210 229 246 256 263 268 272 274
3 359 354 349 350 1 2 355 349 346 341 326 289 232 202 194 203 209 207 186 189 186 187 188 185 184 175 172 175 178 182 184 184 185 187 195 209 226 242 253 261 265 267 271
344 342 351 356 2 358 344 336 337 348 353 349 342 313 231 213 212 197 192 194 194 189 186 192 190 186 177 174 180 182 183 186 184 183 189 197 211 226 240 248 254 262 266 268
310 327 334 333 329 328 329 332 333 336 338 336 334 325 298 249 216 193 192 198 200 191 184 187 190 187 178 180 182 182 182 186 193 193 194 202 219 231 241 250 258 260 264 267
270 289 306 313 319 323 321 321 322 324 326 322 317 312 300 270 230 210 202 198 201 192 185 188 189 180 176 178 179 179 179 181 186 191 194 206 219 232 243 250 257 262 266 268